Location: Unspecified
(43.4680°N, 87.1740°E)
Time: 17:12:56
(UTC+00:00)

Daily predictions for brighter satellites

Satellite Brightness Start Highest point End
(mag) Time Altitude Azimuth Time Altitude Azimuth Time Altitude Azimuth
Starlink AR 2.8 12:00:47 10° SW 12:03:13 46° SE 12:04:32 22° ENE
SKYMED 2 3.7 12:00:48 10° NNE 12:05:04 52° E 12:09:17 10° S
FengYun 1-2 T 4.2 12:01:13 10° SSE 12:06:46 66° ENE 12:12:22 10° N
CZ-2D R/B 4.3 12:06:21 10° ESE 12:09:27 24° ENE 12:12:35 10° NNE
Cosmos 1340 Rocket 3.4 12:08:23 10° N 12:12:00 33° ENE 12:15:36 10° SE
Cosmos 1125 Rocket 3.7 12:10:53 10° S 12:15:52 49° ESE 12:20:38 11° NNE
SL-16 R/B 3.9 12:15:31 10° NNE 12:18:06 13° NE 12:18:06 13° NE
Cosmos 1939 Rocket 3.5 12:14:58 10° SE 12:18:23 30° ENE 12:21:50 10° N
Timation 2 Rocket 3.9 12:13:59 10° SSW 12:19:58 71° ESE 12:26:13 10° NNE
Nadezhda 3 Rocket 4.0 12:14:07 10° N 12:20:21 67° E 12:26:38 10° SSE
Cosmos 1812 Rocket 3.7 12:16:12 10° N 12:20:34 51° ENE 12:24:54 10° SSE
Cosmos 2219 4.0 12:16:14 10° SSE 12:21:00 29° ESE 12:23:34 21° ENE
CZ-4 R/B 4.3 12:18:27 10° SSE 12:22:34 73° ENE 12:26:42 10° N
Meteor 2-1 Rocket 4.4 12:17:46 10° N 12:23:05 47° ENE 12:28:22 10° SSE
CSL-04 Rocket 3.8 12:18:27 10° SE 12:23:44 53° ENE 12:29:06 10° N
SL-14 R/B 3.2 12:20:46 10° S 12:24:47 88° ESE 12:28:49 10° N
YAOGAN 1 2.6 12:22:32 10° SSE 12:26:46 56° ENE 12:31:00 10° N
Cosmos 2333 4.5 12:22:16 10° NNW 12:27:59 72° WSW 12:33:37 10° SSE
Cosmos 2322 4.3 12:24:20 10° NNW 12:29:55 61° WSW 12:35:28 10° S
Envisat 3.9 12:25:35 10° S 12:30:31 52° W 12:35:30 10° NNW
Cosmos 2341 Rocket 4.2 12:26:14 10° SSE 12:32:20 50° E 12:38:27 10° NNE
Cosmos 1300 2.6 12:30:24 10° N 12:34:15 87° W 12:38:03 10° S
ATLAS 5 CENTAUR R/B 3.2 12:31:54 10° WSW 12:35:40 29° NW 12:39:32 11° NNE
USA 116 3.2 12:34:52 35° NE 12:35:58 55° E 12:39:03 10° S
Cosmos 1271 Rocket 3.7 12:34:51 10° SSW 12:38:26 45° WNW 12:42:03 10° N
H-2A ROCKET BODY 4.0 12:32:02 10° WSW 12:38:32 19° SSW 12:41:37 10° SSE
Cosmos 1048 Rocket 3.9 12:33:29 10° NNW 12:38:39 89° WSW 12:43:46 10° SSE
CZ-4 R/B 1.4 12:35:01 10° S 12:38:59 83° WSW 12:43:04 10° NNW
Cosmos 2297 Rocket 2.9 12:36:48 10° SSE 12:41:39 30° ESE 12:42:20 29° E
NOAA 15 4.5 12:36:28 10° SSE 12:41:43 84° ENE 12:47:01 10° NNW
Cosmos 1980 4.0 12:36:39 10° NNW 12:42:06 44° ENE 12:45:18 23° ESE
Okean-O 4.1 12:39:13 10° SSW 12:43:22 39° W 12:47:32 10° NNW
SL-8 Rocket 4.2 12:40:26 10° SSE 12:46:24 46° E 12:52:22 10° NNE
Cosmos 1602 Rocket 3.9 12:42:27 10° SSW 12:46:50 68° W 12:51:13 10° N
COSMOS 2428 2.9 12:42:35 10° NNW 12:48:20 75° WSW 12:54:02 10° SSE
Cosmos-2242 4.4 12:47:34 10° N 12:49:33 24° NNE 12:49:33 24° NNE
Cosmos 2227 Rocket 2.8 12:48:06 10° SSE 12:53:08 34° ESE 12:53:13 34° ESE
COSMO-SKYMED 1 3.5 12:48:58 10° N 12:53:09 47° WNW 12:57:18 10° SW
NOAA 11 4.1 12:49:04 10° SSE 12:54:34 89° E 13:00:07 10° NNW
Starlink AQ 3.7 12:53:38 10° WSW 12:56:03 42° NW 12:56:03 42° NW
ADEOS Rocket 3.3 12:53:22 14° NNE 12:58:54 52° E 13:05:47 10° S
Starlink AS 3.9 12:56:17 10° WSW 12:58:33 38° WNW 12:58:33 38° WNW
Starlink BA 3.9 12:56:27 10° WSW 12:58:41 38° WNW 12:58:41 38° WNW
Cosmos 2219 Rocket 2.8 12:53:44 10° NNW 12:59:20 59° WSW 13:04:51 10° S
Starlink AU 3.9 12:56:39 10° WSW 12:58:53 38° WNW 12:58:53 38° WNW
Starlink AT 3.9 12:56:49 10° WSW 12:59:03 37° WNW 12:59:03 37° WNW
Starlink BB 4.0 12:57:00 10° WSW 12:59:12 37° WNW 12:59:12 37° WNW
Starlink BC 4.0 12:57:12 10° WSW 12:59:22 37° WNW 12:59:22 37° WNW
Starlink BK 4.0 12:57:22 10° WSW 12:59:34 37° WNW 12:59:34 37° WNW
Starlink AY 4.0 12:57:32 10° WSW 12:59:44 37° WNW 12:59:44 37° WNW
Starlink AW 4.0 12:57:42 10° WSW 12:59:56 37° WNW 12:59:56 37° WNW
Starlink BJ 4.0 12:57:52 10° WSW 13:00:03 36° WNW 13:00:03 36° WNW
Starlink AV 4.0 12:58:02 10° WSW 13:00:13 36° WNW 13:00:13 36° WNW
Starlink BD 4.0 12:58:14 10° WSW 13:00:23 36° WNW 13:00:23 36° WNW
Starlink BE 4.0 12:58:22 10° WSW 13:00:35 36° WNW 13:00:35 36° WNW
Starlink BM 4.1 12:58:34 10° WSW 13:00:44 35° WNW 13:00:44 35° WNW
NOSS 0 Rocket 3.8 12:55:04 10° NNW 13:01:21 83° ENE 13:07:32 10° SSE
Starlink AX 4.0 12:58:43 10° WSW 13:00:55 36° WNW 13:00:55 36° WNW
Starlink BH 4.1 12:58:56 10° WSW 13:01:05 35° WNW 13:01:05 35° WNW
Starlink AZ 4.1 12:59:07 10° WSW 13:01:15 35° WNW 13:01:15 35° WNW
Starlink BG 4.1 12:59:18 10° WSW 13:01:26 35° WNW 13:01:26 35° WNW
Starlink BF 4.1 12:59:29 10° WSW 13:01:36 34° WNW 13:01:36 34° WNW
Starlink BL 4.1 12:59:36 10° WSW 13:01:45 35° WNW 13:01:45 35° WNW
Starlink AH 4.1 12:59:48 10° WSW 13:01:54 34° WNW 13:01:54 34° WNW
Starlink AC 4.1 12:59:58 10° WSW 13:02:05 34° WNW 13:02:05 34° WNW
Starlink X 4.2 13:00:09 10° W 13:02:15 34° WNW 13:02:15 34° WNW
Starlink AE 4.2 13:00:18 10° W 13:02:26 34° WNW 13:02:26 34° WNW
Cosmos 1758 Rocket 3.3 12:58:52 10° S 13:03:10 78° E 13:04:21 47° NNE
Starlink Z 4.2 13:00:31 10° W 13:02:35 33° WNW 13:02:35 33° WNW
H-2A R/B 4.2 13:07:14 11° N 13:07:14 11° N 13:07:33 10° N
Starlink AK 4.2 13:00:43 10° W 13:02:47 33° WNW 13:02:47 33° WNW
Starlink AL 4.2 13:00:54 10° W 13:02:57 33° WNW 13:02:57 33° WNW
Starlink AD 4.2 13:01:02 10° W 13:03:06 33° WNW 13:03:06 33° WNW
Starlink Y 4.3 13:01:25 10° W 13:03:27 32° WNW 13:03:27 32° WNW
Starlink AG 4.3 13:01:36 10° W 13:03:37 32° WNW 13:03:37 32° WNW
Starlink W 4.3 13:01:44 10° W 13:03:47 33° WNW 13:03:47 33° WNW
Starlink AJ 4.3 13:01:56 10° W 13:03:57 32° WNW 13:03:57 32° WNW
Starlink AM 4.3 13:02:16 10° W 13:04:16 32° WNW 13:04:16 32° WNW
Starlink AP 4.3 13:02:28 10° W 13:04:27 31° WNW 13:04:27 31° WNW
Starlink AA 4.4 13:02:39 10° W 13:04:35 31° WNW 13:04:35 31° WNW
Starlink AF 4.3 13:02:49 10° W 13:04:50 32° WNW 13:04:50 32° WNW
Starlink AB 4.4 13:03:02 10° W 13:04:58 31° WNW 13:04:58 31° WNW
Starlink AN 4.4 13:03:10 10° W 13:05:08 31° WNW 13:05:08 31° WNW
BREEZE-M DEB (TANK) 4.0 13:06:48 10° WSW 13:08:01 28° WSW 13:08:01 28° WSW
Cosmos 1626 4.2 13:06:23 10° SW 13:09:35 27° WNW 13:12:49 10° NNW
Cosmos 2218 Rocket 4.0 13:04:27 10° S 13:10:36 60° E 13:16:34 11° NNE
Ariane Rocket 2.8 13:12:32 48° SE 13:13:47 66° ENE 13:18:49 10° N
DELTA 2 R/B (1) 4.2 13:13:36 10° SW 13:18:49 41° SSE 13:19:16 40° SSE
Cosmos 1461 4.4 13:18:39 10° NW 13:22:41 38° WSW 13:26:41 11° S
Cosmos 1339 Rocket 4.3 13:19:10 10° N 13:25:16 79° E 13:31:22 10° S
Cosmos 494 Rocket 4.4 13:20:24 10° NNW 13:25:27 61° WSW 13:30:29 10° S
Meteor 1-21 Rocket 4.4 13:20:23 10° SSW 13:25:55 72° WNW 13:30:47 14° N
Cosmos 1241 Rocket 4.3 13:20:38 10° NNW 13:26:52 87° WSW 13:29:22 39° SSE
Cosmos 864 Rocket 4.3 13:21:15 10° S 13:27:21 72° E 13:29:11 46° NNE
Cosmos 1825 Rocket 4.0 13:26:15 10° SSW 13:30:34 60° W 13:30:57 57° NW
CZ-4C R/B 3.2 13:27:49 10° NW 13:35:07 68° WSW 13:43:21 10° SSE
Cosmos 2333 Rocket 4.2 13:32:19 10° NW 13:37:04 28° WSW 13:41:46 10° SSW
Cosmos 2237 Rocket 2.4 13:39:26 10° NNW 13:45:01 67° WSW 13:46:08 54° SSW
Cosmos 1959 Rocket 4.5 13:39:33 10° SSW 13:45:45 77° W 13:49:05 29° N
Cosmos 2366 rocket 4.1 13:46:04 10° SSW 13:52:13 72° W 13:55:13 33° N
Meteor 2-10 Rocket 4.3 13:55:27 10° NNW 13:59:53 49° WNW 13:59:53 49° WNW
SL-16 R/B 3.8 13:57:47 10° NNW 14:00:01 24° NNW 14:00:01 24° NNW
Cosmos 2219 4.2 13:59:38 10° SW 14:04:56 42° WNW 14:05:33 41° NW
Cosmos 2297 Rocket 3.5 14:20:11 10° SW 14:24:13 36° W 14:24:13 36° W
Cosmos 2227 Rocket 3.9 14:31:53 10° SW 14:35:06 29° W 14:35:06 29° W
Cosmos 2227 Rocket 4.5 21:46:57 20° ENE 21:46:57 20° ENE 21:49:38 10° ESE
CZ-3 R/B 4.3 21:57:32 36° SSW 22:02:54 40° S 22:12:08 10° ESE
BREEZE-M DEB (TANK) 4.5 22:39:00 27° ENE 22:39:00 27° ENE 22:42:19 10° ENE
USA 215 3.2 22:35:02 10° ESE 22:41:31 74° NE 22:41:52 72° N
Lacrosse 5 rocket 3.8 22:48:17 19° NNE 22:48:17 19° NNE 22:49:41 10° NE
Cosmos 1697 Rocket 4.3 22:40:29 10° SSE 22:45:24 32° ESE 22:50:21 10° NE
Cosmos 2074 Rocket 4.2 22:48:21 10° N 22:54:36 69° E 23:00:48 10° SSE
Cosmos 2219 3.8 22:59:53 46° S 22:59:53 46° S 23:03:52 10° SSE
Cosmos 1626 4.2 23:02:09 25° SE 23:02:09 25° SE 23:04:01 10° SSE
SKYMED 2 4.4 22:56:39 10° SE 23:00:48 47° ENE 23:00:58 46° ENE
Okean O Rocket 4.1 22:59:44 10° NE 23:03:09 21° E 23:06:32 10° SE
Cosmos 2082 4.4 23:01:20 32° N 23:03:40 52° ENE 23:09:12 10° SE
Cosmos 1626 Rocket 3.6 23:18:17 75° ESE 23:18:17 75° ESE 23:22:30 10° SSE
Cosmos 2297 Rocket 2.0 23:17:53 69° W 23:18:10 71° WSW 23:23:47 10° SSE
Iridium 2 3.9 23:22:47 10° S 23:26:35 70° E 23:30:24 10° N
NOSS 2-2 (D) 4.4 23:27:42 24° S 23:29:23 40° ESE 23:33:02 10° NE
Cosmos 2227 Rocket 2.1 23:28:50 54° WNW 23:29:45 63° WSW 23:35:18 10° S
Cosmos 2344 3.5 23:24:51 10° SSW 23:32:24 89° SE 23:40:30 10° NE
Cosmos 773 Rocket 4.2 23:28:32 10° S 23:33:48 73° ESE 23:39:05 10° NNE
Cosmos 1470 2.6 23:32:01 10° S 23:35:59 88° W 23:39:59 10° N
Cosmos 2263 Rocket 4.2 23:35:29 10° N 23:39:59 24° NE 23:44:29 10° ESE
ALOS 2.1 23:35:24 10° NNE 23:40:06 87° WNW 23:44:46 10° SSW
STARLINK-67 4.2 23:43:39 31° SE 23:43:39 31° SE 23:45:13 10° SE
Cosmos 2278 3.9 23:37:49 10° SSW 23:43:30 73° ESE 23:49:12 10° NNE
Cosmos 2327 Rocket 4.4 23:37:42 10° NNW 23:43:59 72° W 23:50:08 10° S
Nadezhda 1 Rocket 3.8 23:41:18 10° SSW 23:47:22 71° W 23:53:27 10° N
COSMO-SKYMED 1 2.6 23:44:40 10° S 23:48:54 52° W 23:49:38 46° WNW
Cosmos 2369 3.6 23:45:08 10° SSW 23:50:51 74° WNW 23:56:37 10° NNE
Cosmos 1656 3.9 23:51:10 36° W 23:52:28 42° WNW 23:57:40 10° NNE
BREEZE-M DEB (TANK) 3.1 23:57:55 29° SSW 23:57:55 29° SSW 23:59:28 10° SSE
